Regional Weather Roundup
Issued by NWS

Home | Current Version | Previous Version | Graphics & Text | Print | Product List | Glossary On
Versions: 1 2 3 4 5 6 7 8 9 10 11 12 13 14 15 16 17 18 19 20 21 22 23 24 25 26 27 28 29 30 31 32 33 34 35 36 37 38 39 40 41 42 43 44 45 46 47 48 49 50
000
ASUS45 KTFX 312004
RWRMT
MONTANA REGIONAL WEATHER ROUNDUP
NATIONAL WEATHER SERVICE GREAT FALLS MT
200 PM MDT MON AUG 31 2015

NOTE: "FAIR" INDICATES FEW OR NO CLOUDS BELOW 12000 FEET WITH NO
SIGNIFICANT WEATHER AND/OR OBSTRUCTIONS TO VISIBILITY.

MTZ001>007-043-312100-
WEST OF THE DIVIDE

CITY           SKY/WX    TMP DP  RH WIND       PRES   REMARKS
KALISPELL      CLOUDY    64  38  38 SW10      29.98F
MISSOULA       SUNNY     67  41  38 NW8       30.03F
BUTTE          SUNNY     68  32  26 VRB7      30.05F
MULLAN PASS    PTSUNNY   49  38  65 VRB6      30.10F
DEER LODGE       N/A     66  36  32 NE3       30.05F
EUREKA           N/A     61  41  48 S13       29.98F
HAMILTON         N/A     68  39  34 N3        30.01F
LIBBY            N/A     61  41  48 S7        30.01F
$$

MTZ008-052>055-312100-
SOUTHWEST MONTANA

CITY           SKY/WX    TMP DP  RH WIND       PRES   REMARKS
BOZEMAN        MOSUNNY   71  40  32 NW3       30.00F
DILLON         SUNNY     74  32  21 SW14G22   30.03F
W YELLOWSTONE  MOSUNNY   64  32  29 SW22G28   30.16F
$$

MTZ009-010-012-014-046-048-049-054-312100-
EAST SLOPES AND CENTRAL MONTANA

CITY           SKY/WX    TMP DP  RH WIND       PRES   REMARKS
CUT BANK       CLOUDY    62  35  36 W32G43    29.90R
GREAT FALLS    MOSUNNY   73  34  23 SW29G39   29.90F
MALMSTROM AFB  SUNNY     72  34  24 SW28G41   29.90F
HELENA         SUNNY     76  34  21 VRB7G20   29.96F
$$

MTZ011-013-016-021-045-047-050-051-312100-
NORTH CENTRAL MONTANA

CITY           SKY/WX    TMP DP  RH WIND       PRES   REMARKS
HAVRE          PTSUNNY   76  34  21 S5        29.83F
LEWISTOWN      MOSUNNY   71  32  23 W8        29.93F
N BAR RANCH      N/A     68  34  28 N8        29.97F
CHINOOK          N/A     73  34  23 W20G28    29.82F
FORT BENTON      N/A     73  34  23 SW16G30   29.88S
$$

MTZ017>020-022>027-061-062-312100-
NORTHEAST MONTANA

CITY           SKY/WX    TMP DP  RH WIND       PRES   REMARKS
GLASGOW        PTSUNNY   74  39  28 SW16      29.85F
JORDAN           N/A     77  33  20 W13G25    29.88F
SIDNEY         SUNNY     79  36  21 W16G25    29.86F
WOLF POINT     MOSUNNY   73  41  31 W16G22    29.86F
PLENTYWOOD       N/A     73  37  27 W23G29    29.82F
$$

MTZ028>42-056>058-312100-
SOUTHCENTRAL AND SOUTHEAST MONTANA

CITY           SKY/WX    TMP DP  RH WIND       PRES   REMARKS
BAKER          SUNNY     76  41  28 W13G25    29.95F
BILLINGS       MOSUNNY   77  36  22 S7        29.94F
LIVINGSTON     MOSUNNY   78  32  18 W18       29.96F
MILES CITY     SUNNY     78  41  26 S10       29.90F
FORSYTH          N/A     79  39  24 SW8       29.89F
$$

REGIONAL REPORTS...DAKOTAS

CITY           SKY/WX    TMP DP  RH WIND       PRES   REMARKS
WILLISTON      SUNNY     77  37  23 W17       29.86F
MINOT          SUNNY     77  41  27 SW17G26   29.83S
DICKINSON      SUNNY     76  36  23 W10G22    29.91F
BISMARCK       PTSUNNY   81  49  32 W10       29.88F
GRAND FORKS    PTSUNNY   82  60  47 N5        29.76F
FARGO          MOSUNNY   81  66  60 N10       29.79R
RAPID CITY     CLOUDY    72  54  53 N9        30.00F
$$

REGIONAL REPORTS...WYOMING/IDAHO/WASHINGTON

CITY           SKY/WX    TMP DP  RH WIND       PRES   REMARKS
GILLETTE       SUNNY     78  45  30 SE12G18   29.99F
SHERIDAN       SUNNY     80  44  27 SE14G22   29.94F
BUFFALO WY     SUNNY     77  45  32 SE14      29.99F
CODY           SUNNY     81  28  15 NW8       29.98F
YELLOWSTONE LA   N/A     61  28  28 SW9       30.25S
IDAHO FALLS    SUNNY     75  35  23 SW16G23   30.10F
SALMON         SUNNY     70  43  37 NW7       29.99F
BOISE          SUNNY     76  42  29 CALM      30.03F
SPOKANE        PTSUNNY   66  44  45 SW16G22   30.00F
$$

REGIONAL REPORTS...ALBERTA

CITY           SKY/WX    TMP DP  RH WIND       PRES   REMARKS
$$

REGIONAL REPORTS...SASKATCHEWAN

CITY           SKY/WX    TMP DP  RH WIND       PRES   REMARKS
$$



USA.gov is the U.S. government's official web portal to all federal, state and local government web resources and services.